Location: Nairn
(57.5833°N, 3.8667°W)
Time: 23:22:02
(UTC+00:00)

Tiros 1 despin weight - All Passes

Search period start: 25 November 2020 00:00
Search period end: 05 December 2020 00:00
Orbit: 593 x 642 km, 48.2° (Epoch: 25 November)

Date Brightness Start Highest point End Pass type
(mag) Time Alt. Az. Time Alt. Az. Time Alt. Az.
25 Nov - 13:33:10 10° SSE 13:34:18 11° SE 13:35:26 10° SE daylight
25 Nov - 15:11:04 10° SW 15:14:41 22° SSE 15:18:17 10° ESE daylight
25 Nov - 16:51:31 10° WSW 16:55:22 26° S 16:59:12 10° SE visible
25 Nov - 18:32:59 10° WSW 18:35:56 17° SSW 18:38:52 10° SSE visible
26 Nov - 13:47:29 10° S 13:50:14 15° SSE 13:52:57 10° ESE daylight
26 Nov - 15:26:55 10° SW 15:30:46 25° S 15:34:35 10° ESE daylight
26 Nov - 17:07:45 10° WSW 17:11:27 23° SSW 17:15:07 10° SE visible
26 Nov - 18:50:05 10° SW 18:51:52 12° SSW 18:53:39 10° S visible
27 Nov - 14:02:49 10° SSW 14:06:12 20° SSE 14:09:36 10° ESE daylight
27 Nov - 15:42:58 10° WSW 15:46:52 26° S 15:50:44 10° SE daylight
27 Nov - 17:24:10 10° WSW 17:27:30 19° SSW 17:30:49 10° SSE visible
28 Nov - 12:39:47 10° S 12:41:49 13° SSE 12:43:51 10° ESE daylight
28 Nov - 14:18:31 10° SW 14:22:16 24° SSE 14:25:59 10° ESE daylight
28 Nov - 15:59:08 10° WSW 16:02:58 25° S 16:06:45 10° SE daylight
28 Nov - 17:40:52 10° WSW 17:43:29 15° SSW 17:46:05 10° S visible
29 Nov - 12:54:42 10° SSW 12:57:46 17° SSE 13:00:50 10° ESE daylight
29 Nov - 14:34:28 10° SW 14:38:21 26° S 14:42:14 10° ESE daylight
29 Nov - 16:15:27 10° WSW 16:19:02 22° SSW 16:22:36 10° SE daylight
29 Nov - 17:58:46 10° SW 17:59:22 10° SW 17:59:59 10° SSW visible
30 Nov - 13:10:13 10° SSW 13:13:46 22° SSE 13:17:21 10° ESE daylight
30 Nov - 14:50:34 10° WSW 14:54:27 26° S 14:58:20 10° SE daylight
30 Nov - 16:31:56 10° WSW 16:35:03 18° SSW 16:38:08 10° SSE visible
01 Dec - 11:46:47 10° S 11:49:21 15° SSE 11:51:54 10° ESE daylight
01 Dec - 13:26:02 10° SW 13:29:51 25° S 13:33:39 10° ESE daylight
01 Dec - 15:06:47 10° WSW 15:10:33 24° SSW 15:14:17 10° SE daylight
01 Dec - 16:48:52 10° WSW 16:51:00 13° SSW 16:53:08 10° S visible
02 Dec - 12:02:01 10° SSW 12:05:18 19° SSE 12:08:38 10° ESE daylight
02 Dec - 13:42:03 10° SW 13:45:57 26° S 13:49:50 10° ESE daylight
02 Dec - 15:23:10 10° WSW 15:26:36 20° SSW 15:30:01 10° SSE daylight
03 Dec - 10:39:15 10° SSE 10:40:56 12° SSE 10:42:38 10° SE daylight
03 Dec - 12:17:40 10° SW 12:21:21 23° SSE 12:25:02 10° ESE daylight
03 Dec - 13:58:12 10° WSW 14:02:02 25° S 14:05:53 10° SE daylight
03 Dec - 15:39:47 10° WSW 15:42:35 16° SSW 15:45:23 10° S daylight
04 Dec - 10:53:57 10° SSW 10:56:52 16° SSE 10:59:47 10° ESE daylight
04 Dec - 12:33:35 10° SW 12:37:25 26° S 12:41:17 10° ESE daylight
04 Dec - 14:14:28 10° WSW 14:18:07 23° SSW 14:21:46 10° SE daylight
04 Dec - 15:57:08 10° SW 15:58:30 11° SW 15:59:52 10° SSW daylight
